Home > Weather > Behbahan > Past weeks

Flag for Iran Weather for the Past 2 Weeks in Behbahan, Iran

Now
91 °F

Clear.


Feels Like: 87 °F
Forecast: 70 / 104 °F
Wind: 9 mph from West

Location: Gach Saran Du Gunbadan

Current Time: May 4, 2016 at 8:23:49 PM

Latest Report: May 4, 2016 at 7:30 PM


Visibility: 4 mi

Pressure: 29.83 "Hg

Humidity: 15%

Dew Point: 37 °F

Location of BehbahanLocation

Historic Weather in Behbahan — Graph

°F

Behbahan Temperature Yesterday

Maximum temperature yesterday: 95 °F (at 12:30 PM)
Minimum temperature yesterday: 64 °F (at 5:30 AM)
Average temperature yesterday: 82 °F

High & Low Weather Summary for the Past Weeks

 TemperatureHumidityPressure
High100 °F (Apr 27, 3:30 PM)83% (Apr 30, 11:30 PM)30.24 "Hg (Apr 30, 11:30 PM)
Low52 °F (Apr 20, 5:30 AM)6% (May 1, 1:30 AM)29.77 "Hg (Apr 24, 3:30 PM)
Average78 °F27%29.93 "Hg
* Reported Apr 19 6:30 PM — May 4 6:30 PM, Behbahan, Weather by CustomWeather, © 2016

Note: Actual official high and low records may vary slightly from our data, if they occured in-between our weather recording intervals... More about our weather records

Advertising

Behbahan Weather History for the Previous 24 Hours

Scroll right to see more
 ConditionsComfort  
Time TempWeatherWind HumidityBarometerVisibility
6:30 PM
Wed, May 4
93 °FClear.12 mph16%29.83 "Hg4 mi
5:30 PM95 °FClear.No wind12%29.83 "Hg5 mi
4:30 PM97 °FClear.14 mph13%29.83 "Hg4 mi
3:30 PM95 °FClear.14 mph12%29.83 "Hg5 mi
2:30 PM95 °FClear.9 mph12%29.86 "Hg4 mi
1:30 PM93 °FClear.No wind12%29.86 "Hg4 mi
12:30 PM95 °FClear.12 mph13%29.89 "Hg4 mi
11:30 AM91 °FClear.No wind15%29.89 "Hg5 mi
10:30 AM90 °FClear.No wind16%29.89 "Hg5 mi
9:30 AM84 °FSunny.No wind20%29.89 "Hg10 mi
8:30 AM77 °FSunny.No wind30%29.89 "Hg10 mi
7:30 AM68 °FClear.No wind43%29.86 "Hg10 mi
6:30 AM66 °FClear.No wind43%29.86 "Hg10 mi
5:30 AM68 °FClear.No wind40%29.83 "Hg10 mi
4:30 AM66 °FClear.No wind40%29.86 "Hg10 mi
3:30 AM70 °FClear.No wind35%29.83 "Hg10 mi
2:30 AM73 °FClear.No wind29%29.86 "Hg10 mi
1:30 AM73 °FClear.No wind23%29.86 "Hg10 mi
12:30 AM75 °FClear.No wind29%29.86 "Hg10 mi
11:30 PM
Tue, May 3
75 °FClear.No wind31%29.89 "Hg10 mi
10:30 PM77 °FClear.No wind28%29.89 "Hg10 mi
9:30 PM79 °FClear.No wind24%29.89 "Hg10 mi
8:30 PM84 °FSunny.No wind19%29.86 "Hg10 mi
Weather by CustomWeather, © 2016

See weather overviewHow to use our weather pages